Location: Hebron
(33.0265°N, 96.8636°W)
Time: 21:27:55
(UTC+00:00)

Okean 1 - Pass Details

Date: 05 July 2022
Orbit: 532 x 553 km, 82.5° (Epoch: 07 August)

Event Time Altitude Azimuth Distance (km) Brightness Sun altitude
Rises 08:45:50 0° 11° (NNE) 2,684 7.9 -25.7°
Reaches altitude 10° 08:48:28 10° 29° (NNE) 1,787 7.0 -25.4°
Maximum altitude 08:51:21 20° 77° (ENE) 1,286 5.7 -25.1°
Enters shadow 08:53:44 12° 119° (ESE) 1,637 5.8 -24.8°
